Voltar ao catálogo

DELTA 1 DEB

AtivoSSO
NORAD 12534·DEBRIS·🇺🇸 United States

Lançado Jul 29, 1976 de Vandenberg Space Force Base

Loading…

Próximas Passagens (próximas 24 horas)

TLE

AtualizadoSource: Space-Track

Época: Sep 14, 2026, 11:21 UTC

1 12534U 76077DP  26257.47355564 -.00000152  00000-0 -83311-3 0  9992
2 12534 102.0191 323.5940 0059184 270.6896 221.8381 12.37030301180297

Acompanhe DELTA 1 DEB em tempo real com AllMySat

Download on the App Store